Year,Month,Day,Hour,Minute,Value (Times are PST for temperature in C)
2013,10,18,00,00,4.80
2013,10,18,00,01,4.80
2013,10,18,00,02,4.80
2013,10,18,00,03,4.80
2013,10,18,00,04,4.80
2013,10,18,00,05,4.80
2013,10,18,00,06,4.80
2013,10,18,00,07,4.80
2013,10,18,00,08,4.90
2013,10,18,00,09,4.90
2013,10,18,00,10,4.90
2013,10,18,00,11,4.90
2013,10,18,00,12,4.90
2013,10,18,00,13,4.90
2013,10,18,00,14,4.90
2013,10,18,00,15,5.00
2013,10,18,00,16,5.00
2013,10,18,00,17,5.00
2013,10,18,00,18,5.00
2013,10,18,00,19,5.00
2013,10,18,00,20,5.00
2013,10,18,00,21,5.00
2013,10,18,00,22,5.00
2013,10,18,00,23,5.10
2013,10,18,00,24,5.10
2013,10,18,00,25,5.10
2013,10,18,00,26,5.10
2013,10,18,00,27,5.10
2013,10,18,00,28,5.10
2013,10,18,00,29,5.10
2013,10,18,00,30,5.10
2013,10,18,00,31,5.20
2013,10,18,00,32,5.20
2013,10,18,00,33,5.20
2013,10,18,00,34,5.20
2013,10,18,00,35,5.30
2013,10,18,00,36,5.30
2013,10,18,00,37,5.30
2013,10,18,00,38,5.30
2013,10,18,00,39,5.30
2013,10,18,00,40,5.40
2013,10,18,00,41,5.40
2013,10,18,00,42,5.40
2013,10,18,00,43,5.40
2013,10,18,00,44,5.40
2013,10,18,00,45,5.40
2013,10,18,00,46,5.40
2013,10,18,00,47,5.40
2013,10,18,00,48,5.40
2013,10,18,00,49,5.40
2013,10,18,00,50,5.40
2013,10,18,00,51,5.40
2013,10,18,00,52,5.40
2013,10,18,00,53,5.40
2013,10,18,00,54,5.40
2013,10,18,00,55,5.40
2013,10,18,00,56,5.40
2013,10,18,00,57,5.40
2013,10,18,00,58,5.40
2013,10,18,00,59,5.40
2013,10,18,01,00,5.40
2013,10,18,01,01,5.40
2013,10,18,01,02,5.50
2013,10,18,01,03,5.50
2013,10,18,01,04,5.50
2013,10,18,01,05,5.50
2013,10,18,01,06,5.60
2013,10,18,01,07,5.60
2013,10,18,01,08,5.60
2013,10,18,01,09,5.70
2013,10,18,01,10,5.70
2013,10,18,01,11,5.70
2013,10,18,01,12,5.70
2013,10,18,01,13,5.70
2013,10,18,01,14,5.70
2013,10,18,01,15,5.70
2013,10,18,01,16,5.70
2013,10,18,01,17,5.70
2013,10,18,01,18,5.70
2013,10,18,01,19,5.70
2013,10,18,01,20,5.70
2013,10,18,01,21,5.70
2013,10,18,01,22,5.70
2013,10,18,01,23,5.70
2013,10,18,01,24,5.70
2013,10,18,01,25,5.70
2013,10,18,01,26,5.80
2013,10,18,01,27,5.80
2013,10,18,01,28,5.80
2013,10,18,01,29,5.80
2013,10,18,01,30,5.80
2013,10,18,01,31,5.80
2013,10,18,01,32,5.80
2013,10,18,01,33,5.80
2013,10,18,01,34,5.80
2013,10,18,01,35,5.80
2013,10,18,01,36,5.80
2013,10,18,01,37,5.80
2013,10,18,01,38,5.90
2013,10,18,01,39,6.00
2013,10,18,01,40,6.00
2013,10,18,01,41,6.10
2013,10,18,01,42,6.00
2013,10,18,01,43,6.10
2013,10,18,01,44,6.10
2013,10,18,01,45,6.10
2013,10,18,01,46,6.10
2013,10,18,01,47,6.10
2013,10,18,01,48,6.10
2013,10,18,01,49,6.10
2013,10,18,01,50,6.20
2013,10,18,01,51,6.20
2013,10,18,01,52,6.20
2013,10,18,01,53,6.20
2013,10,18,01,54,6.20
2013,10,18,01,55,6.30
2013,10,18,01,56,6.30
2013,10,18,01,57,6.30
2013,10,18,01,58,6.30
2013,10,18,01,59,6.30
2013,10,18,02,00,6.30
2013,10,18,02,01,6.30
2013,10,18,02,02,6.30
2013,10,18,02,03,6.30
2013,10,18,02,04,6.30
2013,10,18,02,05,6.30
2013,10,18,02,06,6.30
2013,10,18,02,07,6.40
2013,10,18,02,08,6.30
2013,10,18,02,09,6.30
2013,10,18,02,10,6.30
2013,10,18,02,11,6.40
2013,10,18,02,12,6.40
2013,10,18,02,13,6.40
2013,10,18,02,14,6.40
2013,10,18,02,15,6.30
2013,10,18,02,16,6.30
2013,10,18,02,17,6.40
2013,10,18,02,18,6.40
2013,10,18,02,19,6.40
2013,10,18,02,20,6.40
2013,10,18,02,21,6.40
2013,10,18,02,22,6.40
2013,10,18,02,23,6.50
2013,10,18,02,24,6.50
2013,10,18,02,25,6.50
2013,10,18,02,26,6.50
2013,10,18,02,27,6.50
2013,10,18,02,28,6.50
2013,10,18,02,29,6.50
2013,10,18,02,30,6.50
2013,10,18,02,31,6.50
2013,10,18,02,32,6.50
2013,10,18,02,33,6.50
2013,10,18,02,34,6.50
2013,10,18,02,35,6.50
2013,10,18,02,36,6.50
2013,10,18,02,37,6.50
2013,10,18,02,38,6.50
2013,10,18,02,39,6.50
2013,10,18,02,40,6.60
2013,10,18,02,41,6.60
2013,10,18,02,42,6.60
2013,10,18,02,43,6.60
2013,10,18,02,44,6.60
2013,10,18,02,45,6.60
2013,10,18,02,46,6.70
2013,10,18,02,47,6.70
2013,10,18,02,48,6.70
2013,10,18,02,49,6.70
2013,10,18,02,50,6.70
2013,10,18,02,51,6.80
2013,10,18,02,52,6.80
2013,10,18,02,53,6.80
2013,10,18,02,54,6.80
2013,10,18,02,55,6.80
2013,10,18,02,56,6.80
2013,10,18,02,57,6.80
2013,10,18,02,58,6.80
2013,10,18,02,59,6.80
2013,10,18,03,00,6.80
2013,10,18,03,01,6.80
2013,10,18,03,02,6.80
2013,10,18,03,03,6.90
2013,10,18,11,04,6.90
2013,10,18,11,05,6.90
2013,10,18,11,06,6.90
2013,10,18,11,07,7.00
2013,10,18,11,08,7.00
2013,10,18,11,09,7.00
2013,10,18,11,10,7.00
2013,10,18,11,11,7.00
2013,10,18,11,12,7.00
2013,10,18,11,13,7.00
2013,10,18,11,14,7.00
2013,10,18,11,15,7.00
2013,10,18,11,16,7.00
2013,10,18,11,17,7.00
2013,10,18,11,18,7.00
2013,10,18,11,19,7.10
2013,10,18,11,20,7.10
2013,10,18,11,21,7.20
2013,10,18,11,22,7.20
2013,10,18,11,23,7.20
2013,10,18,11,24,7.20
2013,10,18,11,25,7.20
2013,10,18,11,26,7.20
2013,10,18,11,27,7.20
2013,10,18,11,28,7.20
2013,10,18,11,29,7.20
2013,10,18,11,30,7.30
2013,10,18,11,31,7.30
2013,10,18,11,32,7.30
2013,10,18,11,33,7.30
2013,10,18,11,34,7.30
2013,10,18,11,35,7.30
2013,10,18,11,36,7.30
2013,10,18,11,37,7.30
2013,10,18,11,38,7.30
2013,10,18,11,39,7.30
2013,10,18,11,40,7.30
2013,10,18,11,41,7.30
2013,10,18,11,42,7.40
2013,10,18,11,43,7.40
2013,10,18,11,44,7.50
2013,10,18,11,45,7.50
2013,10,18,11,46,7.50
2013,10,18,11,47,7.50
2013,10,18,11,48,7.60
2013,10,18,11,49,7.60
2013,10,18,11,50,7.60
2013,10,18,11,51,7.60
2013,10,18,11,52,7.70
2013,10,18,11,53,7.70
2013,10,18,11,54,7.70
2013,10,18,11,55,7.70
2013,10,18,11,56,7.70
2013,10,18,11,57,7.70
2013,10,18,11,58,7.70
2013,10,18,11,59,7.70
2013,10,18,12,00,7.70
2013,10,18,12,01,7.70
2013,10,18,12,02,7.70
2013,10,18,12,03,7.70
2013,10,18,12,04,7.70
2013,10,18,12,05,7.70
2013,10,18,12,06,7.70
2013,10,18,12,07,7.70
2013,10,18,12,08,7.70
2013,10,18,12,09,7.80
2013,10,18,12,10,7.80
2013,10,18,12,11,7.80
2013,10,18,12,12,7.80
2013,10,18,12,13,7.90
2013,10,18,12,14,7.90
2013,10,18,12,15,7.90
2013,10,18,12,16,7.90
2013,10,18,12,17,8.00
2013,10,18,12,18,8.00
2013,10,18,12,19,8.00
2013,10,18,12,20,8.10
2013,10,18,12,21,8.10
2013,10,18,12,22,8.10
2013,10,18,12,23,8.10
2013,10,18,12,24,8.10
2013,10,18,12,25,8.10
2013,10,18,12,26,8.10
2013,10,18,12,27,8.10
2013,10,18,12,28,8.10
2013,10,18,12,29,8.10
2013,10,18,12,30,8.10
2013,10,18,12,31,8.20
2013,10,18,12,32,8.20
2013,10,18,12,33,8.20
2013,10,18,12,34,8.30
2013,10,18,12,35,8.30
2013,10,18,12,36,8.30
2013,10,18,12,37,8.30
2013,10,18,12,38,8.30
2013,10,18,12,39,8.30
2013,10,18,12,40,8.30
2013,10,18,12,41,8.30
2013,10,18,12,42,8.30
2013,10,18,12,43,8.30
2013,10,18,12,44,8.40
2013,10,18,12,45,8.40
2013,10,18,12,46,8.40
2013,10,18,12,47,8.50
2013,10,18,12,48,8.50
2013,10,18,12,49,8.50
2013,10,18,12,50,8.50
2013,10,18,12,51,8.50
2013,10,18,12,52,8.60
2013,10,18,12,53,8.60
2013,10,18,12,54,8.60
2013,10,18,12,55,8.60
2013,10,18,12,56,8.60
2013,10,18,12,57,8.70
2013,10,18,12,58,8.70
2013,10,18,12,59,8.80
2013,10,18,13,00,8.80
2013,10,18,13,01,8.80
2013,10,18,13,02,8.80
2013,10,18,13,03,8.80
2013,10,18,13,04,8.80
2013,10,18,13,05,8.80
2013,10,18,13,06,8.90
2013,10,18,13,07,8.90
2013,10,18,13,08,8.90
2013,10,18,13,09,8.90
2013,10,18,13,10,8.90
2013,10,18,13,11,9.00
2013,10,18,13,12,9.00
2013,10,18,13,13,9.00
2013,10,18,13,14,9.10
2013,10,18,13,15,9.10
2013,10,18,13,16,9.10
2013,10,18,13,17,9.10
2013,10,18,13,18,9.20
2013,10,18,13,19,9.20
2013,10,18,13,20,9.30
2013,10,18,13,21,9.30
2013,10,18,13,22,9.30
2013,10,18,13,23,9.30
2013,10,18,13,24,9.30
2013,10,18,13,25,9.30
2013,10,18,13,26,9.40
2013,10,18,13,27,9.40
2013,10,18,13,28,9.40
2013,10,18,13,29,9.40
2013,10,18,13,30,9.40
2013,10,18,13,31,9.40
2013,10,18,13,32,9.40
2013,10,18,13,33,9.40
2013,10,18,13,34,9.40
2013,10,18,13,35,9.50
2013,10,18,13,36,9.40
2013,10,18,13,37,9.40
2013,10,18,13,38,9.40
2013,10,18,13,39,9.40
2013,10,18,13,40,9.50
2013,10,18,13,41,9.50
2013,10,18,13,42,9.50
2013,10,18,13,43,9.50
2013,10,18,13,44,9.50
2013,10,18,13,45,9.50
2013,10,18,13,46,9.50
2013,10,18,13,47,9.50
2013,10,18,13,48,9.60
2013,10,18,13,49,9.60
2013,10,18,13,50,9.60
2013,10,18,13,51,9.60
2013,10,18,13,52,9.60
2013,10,18,13,53,9.60
2013,10,18,13,54,9.70
2013,10,18,13,55,9.70
2013,10,18,13,56,9.70
2013,10,18,13,57,9.70
2013,10,18,13,58,9.80
2013,10,18,13,59,9.80
2013,10,18,14,00,9.80
2013,10,18,14,01,9.80
2013,10,18,14,02,9.80
2013,10,18,14,03,9.80
2013,10,18,14,04,9.70
2013,10,18,14,05,9.70
2013,10,18,14,06,9.80
2013,10,18,14,07,9.80
2013,10,18,14,08,9.80
2013,10,18,14,09,9.80
2013,10,18,14,10,9.80
2013,10,18,14,11,9.90
2013,10,18,14,12,9.90
2013,10,18,14,13,9.90
2013,10,18,14,14,9.90
2013,10,18,14,15,9.90
2013,10,18,14,16,9.90
2013,10,18,14,17,9.90
2013,10,18,14,18,10.00
2013,10,18,14,19,10.00
2013,10,18,14,20,9.90
2013,10,18,14,21,9.90
2013,10,18,14,22,9.90
2013,10,18,14,23,9.90
2013,10,18,14,24,9.90
2013,10,18,14,25,9.90
2013,10,18,14,26,9.90
2013,10,18,14,27,9.90
2013,10,18,14,28,9.90
2013,10,18,14,29,9.90
2013,10,18,14,30,9.90
2013,10,18,14,31,9.80
2013,10,18,14,32,9.80
2013,10,18,14,33,9.80
2013,10,18,14,34,9.80
2013,10,18,14,35,9.80
2013,10,18,14,36,9.80
2013,10,18,14,37,9.80
2013,10,18,14,38,9.80
2013,10,18,14,39,9.80
2013,10,18,14,40,9.80
2013,10,18,14,41,9.80
2013,10,18,14,42,9.80
2013,10,18,14,43,9.80
2013,10,18,14,44,9.80
2013,10,18,14,45,9.80
2013,10,18,14,46,9.80
2013,10,18,14,47,9.70
2013,10,18,14,48,9.70
2013,10,18,14,49,9.70
2013,10,18,14,50,9.70
2013,10,18,14,51,9.70
2013,10,18,14,52,9.70
2013,10,18,14,53,9.70
2013,10,18,14,54,9.70
2013,10,18,14,55,9.70
2013,10,18,14,56,9.70
2013,10,18,14,57,9.70
2013,10,18,14,58,9.60
2013,10,18,14,59,9.60
2013,10,18,15,00,9.60
2013,10,18,15,01,9.50
2013,10,18,15,02,9.50
2013,10,18,15,03,9.40
2013,10,18,15,04,9.40
2013,10,18,15,05,9.40
2013,10,18,15,06,9.40
2013,10,18,15,07,9.40
2013,10,18,15,08,9.40
2013,10,18,15,09,9.40
2013,10,18,15,10,9.50
2013,10,18,15,11,9.50
2013,10,18,15,12,9.40
2013,10,18,15,13,9.40
2013,10,18,15,14,9.40
2013,10,18,15,15,9.40
2013,10,18,15,16,9.40
2013,10,18,15,17,9.40
2013,10,18,15,18,9.40
2013,10,18,15,19,9.40
2013,10,18,15,20,9.40
2013,10,18,15,21,9.50
2013,10,18,15,22,9.50
2013,10,18,15,23,9.50
2013,10,18,15,24,9.50
2013,10,18,15,25,9.50
2013,10,18,15,26,9.50
2013,10,18,15,27,9.50
2013,10,18,15,28,9.40
2013,10,18,15,29,9.40
2013,10,18,15,30,9.40
2013,10,18,15,31,9.40
2013,10,18,15,32,9.30
2013,10,18,15,33,9.30
2013,10,18,15,34,9.30
2013,10,18,15,35,9.30
2013,10,18,15,36,9.30
2013,10,18,15,37,9.30
2013,10,18,15,38,9.30
2013,10,18,15,39,9.30
2013,10,18,15,40,9.30
2013,10,18,15,41,9.30
2013,10,18,15,42,9.30
2013,10,18,15,43,9.30
2013,10,18,15,44,9.30
2013,10,18,15,45,9.30
2013,10,18,15,46,9.30
2013,10,18,15,47,9.30
2013,10,18,15,48,9.30
2013,10,18,15,49,9.40
2013,10,18,15,50,9.40
2013,10,18,15,51,9.40
2013,10,18,15,52,9.50
2013,10,18,15,53,9.50
2013,10,18,15,54,9.50
2013,10,18,15,55,9.50
2013,10,18,15,56,9.50
2013,10,18,15,57,9.50
2013,10,18,15,58,9.50
2013,10,18,15,59,9.50
2013,10,18,16,00,9.50
2013,10,18,16,01,9.60
2013,10,18,16,02,9.60
2013,10,18,16,03,9.60
2013,10,18,16,04,9.60
2013,10,18,16,05,9.70
2013,10,18,16,06,9.70
2013,10,18,16,07,9.70
2013,10,18,16,08,9.70
2013,10,18,16,09,9.80
2013,10,18,16,10,9.80
2013,10,18,16,11,9.80
2013,10,18,16,12,9.80
2013,10,18,16,13,9.90
2013,10,18,16,14,9.90
2013,10,18,16,15,9.90
2013,10,18,16,16,9.90
2013,10,18,16,17,9.90
2013,10,18,16,18,9.90
2013,10,18,16,19,9.90
2013,10,18,16,20,9.90
2013,10,18,16,21,10.00
2013,10,18,16,22,10.00
2013,10,18,16,23,10.00
2013,10,18,16,24,9.90
2013,10,18,16,25,9.90
2013,10,18,16,26,9.90
2013,10,18,16,27,9.90
2013,10,18,16,28,9.90
2013,10,18,16,29,9.90
2013,10,18,16,30,9.90
2013,10,18,16,31,9.80
2013,10,18,16,32,9.80
2013,10,18,16,33,9.80
2013,10,18,16,34,9.80
2013,10,18,16,35,9.80
2013,10,18,16,36,9.70
2013,10,18,16,37,9.70
2013,10,18,16,38,9.70
2013,10,18,16,39,9.70
2013,10,18,16,40,9.70
2013,10,18,16,41,9.60
2013,10,18,16,42,9.60
2013,10,18,16,43,9.60
2013,10,18,16,44,9.50
2013,10,18,16,45,9.50
2013,10,18,16,46,9.50
2013,10,18,16,47,9.40
2013,10,18,16,48,9.40
2013,10,18,16,49,9.40
2013,10,18,16,50,9.30
2013,10,18,16,51,9.30
2013,10,18,16,52,9.30
2013,10,18,16,53,9.30
2013,10,18,16,54,9.20
2013,10,18,16,55,9.10
2013,10,18,16,56,9.10
2013,10,18,16,57,9.00
2013,10,18,16,58,8.90
2013,10,18,16,59,8.80
2013,10,18,17,00,8.80
2013,10,18,17,01,8.80
2013,10,18,17,02,8.70
2013,10,18,17,03,8.70
2013,10,18,17,04,8.60
2013,10,18,17,05,8.60
2013,10,18,17,06,8.60
2013,10,18,17,07,8.50
2013,10,18,17,08,8.50
2013,10,18,17,09,8.50
2013,10,18,17,10,8.50
2013,10,18,17,11,8.50
2013,10,18,17,12,8.50
2013,10,18,17,13,8.50
2013,10,18,17,14,8.50
2013,10,18,17,15,8.40
2013,10,18,17,16,8.40
2013,10,18,17,17,8.40
2013,10,18,17,18,8.40
2013,10,18,17,19,8.40
2013,10,18,17,20,8.40
2013,10,18,17,21,8.30
2013,10,18,17,22,8.30
2013,10,18,17,23,8.30
2013,10,18,17,24,8.30
2013,10,18,17,25,8.30
2013,10,18,17,26,8.30
2013,10,18,17,27,8.30
2013,10,18,17,28,8.30
2013,10,18,17,29,8.30
2013,10,18,17,30,8.30
2013,10,18,17,31,8.30
2013,10,18,17,32,8.30
2013,10,18,17,33,8.30
2013,10,18,17,34,8.30
2013,10,18,17,35,8.30
2013,10,18,17,36,8.30
2013,10,18,17,37,8.30
2013,10,18,17,38,8.20
2013,10,18,17,39,8.20
2013,10,18,17,40,8.20
2013,10,18,17,41,8.20
2013,10,18,17,42,8.20
2013,10,18,17,43,8.20
2013,10,18,17,44,8.10
2013,10,18,17,45,8.10
2013,10,18,17,46,8.10
2013,10,18,17,47,8.10
2013,10,18,17,48,8.10
2013,10,18,17,49,8.10
2013,10,18,17,50,8.10
2013,10,18,17,51,8.20
2013,10,18,17,52,8.20
2013,10,18,17,53,8.20
2013,10,18,17,54,8.20
2013,10,18,17,55,8.10
2013,10,18,17,56,8.10
2013,10,18,17,57,8.10
2013,10,18,17,58,8.10
2013,10,18,17,59,8.10
2013,10,18,18,00,8.10
2013,10,18,18,01,8.10
2013,10,18,18,02,8.10
2013,10,18,18,03,8.10
2013,10,18,18,04,8.10
2013,10,18,18,05,8.00
2013,10,18,18,06,8.00
2013,10,18,18,07,8.00
2013,10,18,18,08,8.00
2013,10,18,18,09,8.00
2013,10,18,18,10,8.00
2013,10,18,18,11,8.00
2013,10,18,18,12,8.00
2013,10,18,18,13,8.00
2013,10,18,18,14,8.00
2013,10,18,18,15,8.00
2013,10,18,18,16,8.00
2013,10,18,18,17,8.00
2013,10,18,18,18,8.00
2013,10,18,18,19,8.00
2013,10,18,18,20,8.00
2013,10,18,18,21,8.00
2013,10,18,18,22,7.90
2013,10,18,18,23,7.90
2013,10,18,18,24,7.90
2013,10,18,18,25,7.90
2013,10,18,18,26,7.90
2013,10,18,18,27,7.80
2013,10,18,18,28,7.80
2013,10,18,18,29,7.80
2013,10,18,18,30,7.80
2013,10,18,18,31,7.80
2013,10,18,18,32,7.80
2013,10,18,18,33,7.80
2013,10,18,18,34,7.80
2013,10,18,18,35,7.80
2013,10,18,18,36,7.80
2013,10,18,18,37,7.80
2013,10,18,18,38,7.80
2013,10,18,18,39,7.80
2013,10,18,18,40,7.80
2013,10,18,18,41,7.80
2013,10,18,18,42,7.80
2013,10,18,18,43,7.80
2013,10,18,18,44,7.80
2013,10,18,18,45,7.80
2013,10,18,18,46,7.80
2013,10,18,18,47,7.80
2013,10,18,18,48,7.80
2013,10,18,18,49,7.80
2013,10,18,18,50,7.80
2013,10,18,18,51,7.80
2013,10,18,18,52,7.80
2013,10,18,18,53,7.80
2013,10,18,18,54,7.80
2013,10,18,18,55,7.80
2013,10,18,18,56,7.80
2013,10,18,18,57,7.70
2013,10,18,18,58,7.70
2013,10,18,18,59,7.70
2013,10,18,19,00,7.70
2013,10,18,19,01,7.70
2013,10,18,19,02,7.70
2013,10,18,19,03,7.70
2013,10,18,19,04,7.70
2013,10,18,19,05,7.60
2013,10,18,19,06,7.60
2013,10,18,19,07,7.60
2013,10,18,19,08,7.60
2013,10,18,19,09,7.60
2013,10,18,19,10,7.60
2013,10,18,19,11,7.60
2013,10,18,19,12,7.50
2013,10,18,19,13,7.50
2013,10,18,19,14,7.50
2013,10,18,19,15,7.50
2013,10,18,19,16,7.50
2013,10,18,19,17,7.50
2013,10,18,19,18,7.50
2013,10,18,19,19,7.50
2013,10,18,19,20,7.50
2013,10,18,19,21,7.50
2013,10,18,19,22,7.50
2013,10,18,19,23,7.50
2013,10,18,19,24,7.40
2013,10,18,19,25,7.40
2013,10,18,19,26,7.40
2013,10,18,19,27,7.40
2013,10,18,19,28,7.40
2013,10,18,19,29,7.40
2013,10,18,19,30,7.40
2013,10,18,19,31,7.40
2013,10,18,19,32,7.40
2013,10,18,19,33,7.40
2013,10,18,19,34,7.30
2013,10,18,19,35,7.30
2013,10,18,19,36,7.30
2013,10,18,19,37,7.30
2013,10,18,19,38,7.30
2013,10,18,19,39,7.30
2013,10,18,19,40,7.30
2013,10,18,19,41,7.30
2013,10,18,19,42,7.30
2013,10,18,19,43,7.30
2013,10,18,19,44,7.30
2013,10,18,19,45,7.30
2013,10,18,19,46,7.30
2013,10,18,19,47,7.30
2013,10,18,19,48,7.30
2013,10,18,19,49,7.30
2013,10,18,19,50,7.30
2013,10,18,19,51,7.30
2013,10,18,19,52,7.30
2013,10,18,19,53,7.30
2013,10,18,19,54,7.30
2013,10,18,19,55,7.30
2013,10,18,19,56,7.30
2013,10,18,19,57,7.30
2013,10,18,19,58,7.30
2013,10,18,19,59,7.30
2013,10,18,20,00,7.20
2013,10,18,20,01,7.20
2013,10,18,20,02,7.20
2013,10,18,20,03,7.20
2013,10,18,20,04,7.20
2013,10,18,20,05,7.20
2013,10,18,20,06,7.20
2013,10,18,20,07,7.20
2013,10,18,20,08,7.20
2013,10,18,20,09,7.20
2013,10,18,20,10,7.20
2013,10,18,20,11,7.20
2013,10,18,20,12,7.10
2013,10,18,20,13,7.10
2013,10,18,20,14,7.10
2013,10,18,20,15,7.10
2013,10,18,20,16,7.10
2013,10,18,20,17,7.10
2013,10,18,20,18,7.10
2013,10,18,20,19,7.10
2013,10,18,20,20,7.00
2013,10,18,20,21,7.00
2013,10,18,20,22,7.00
2013,10,18,20,23,7.00
2013,10,18,20,24,7.00
2013,10,18,20,25,6.90
2013,10,18,20,26,6.90
2013,10,18,20,27,6.90
2013,10,18,20,28,6.90
2013,10,18,20,29,6.90
2013,10,18,20,30,6.90
2013,10,18,20,31,6.90
2013,10,18,20,32,6.80
2013,10,18,20,33,6.80
2013,10,18,20,34,6.80
2013,10,18,20,35,6.80
2013,10,18,20,36,6.80
2013,10,18,20,37,6.80
2013,10,18,20,38,6.80
2013,10,18,20,39,6.80
2013,10,18,20,40,6.80
2013,10,18,20,41,6.80
2013,10,18,20,42,6.80
2013,10,18,20,43,6.80
2013,10,18,20,44,6.80
2013,10,18,20,45,6.80
2013,10,18,20,46,6.80
2013,10,18,20,47,6.80
2013,10,18,20,48,6.80
2013,10,18,20,49,6.80
2013,10,18,20,50,6.80
2013,10,18,20,51,6.80
2013,10,18,20,52,6.70
2013,10,18,20,53,6.70
2013,10,18,20,54,6.70
2013,10,18,20,55,6.70
2013,10,18,20,56,6.70
2013,10,18,20,57,6.70
2013,10,18,20,58,6.70
2013,10,18,20,59,6.70
2013,10,18,21,00,6.70
2013,10,18,21,01,6.70
2013,10,18,21,02,6.70
2013,10,18,21,03,6.70
2013,10,18,21,04,6.70
2013,10,18,21,05,6.60
2013,10,18,21,06,6.60
2013,10,18,21,07,6.60
2013,10,18,21,08,6.60
2013,10,18,21,09,6.50
2013,10,18,21,10,6.50
2013,10,18,21,11,6.50
2013,10,18,21,12,6.40
2013,10,18,21,13,6.40
2013,10,18,21,14,6.40
2013,10,18,21,15,6.40
2013,10,18,21,16,6.40
2013,10,18,21,17,6.40
2013,10,18,21,18,6.30
2013,10,18,21,19,6.30
2013,10,18,21,20,6.30
2013,10,18,21,21,6.30
2013,10,18,21,22,6.30
2013,10,18,21,23,6.30
2013,10,18,21,24,6.30
2013,10,18,21,25,6.30
2013,10,18,21,26,6.20
2013,10,18,21,27,6.20
2013,10,18,21,28,6.20
2013,10,18,21,29,6.20
2013,10,18,21,30,6.20
2013,10,18,21,31,6.20
2013,10,18,21,32,6.10
2013,10,18,21,33,6.10
2013,10,18,21,34,6.10
2013,10,18,21,35,6.10
2013,10,18,21,36,6.10
2013,10,18,21,37,6.10
2013,10,18,21,38,6.00
2013,10,18,21,39,6.00
2013,10,18,21,40,6.00
2013,10,18,21,41,5.90
2013,10,18,21,42,5.90
2013,10,18,21,43,5.90
2013,10,18,21,44,5.80
2013,10,18,21,45,5.80
2013,10,18,21,46,5.80
2013,10,18,21,47,5.80
2013,10,18,21,48,5.80
2013,10,18,21,49,5.80
2013,10,18,21,50,5.70
2013,10,18,21,51,5.70
2013,10,18,21,52,5.70
2013,10,18,21,53,5.70
2013,10,18,21,54,5.70
2013,10,18,21,55,5.70
2013,10,18,21,56,5.70
2013,10,18,21,57,5.70
2013,10,18,21,58,5.70
2013,10,18,21,59,5.70
2013,10,18,22,00,5.70
2013,10,18,22,01,5.60
2013,10,18,22,02,5.60
2013,10,18,22,03,5.60
2013,10,18,22,04,5.60
2013,10,18,22,05,5.60
2013,10,18,22,06,5.60
2013,10,18,22,07,5.60
2013,10,18,22,08,5.60
2013,10,18,22,09,5.60
2013,10,18,22,10,5.60
2013,10,18,22,11,5.60
2013,10,18,22,12,5.60
2013,10,18,22,13,5.60
2013,10,18,22,14,5.60
2013,10,18,22,15,5.60
2013,10,18,22,16,5.60
2013,10,18,22,17,5.60
2013,10,18,22,18,5.60
2013,10,18,22,19,5.70
2013,10,18,22,20,5.60
2013,10,18,22,21,5.60
2013,10,18,22,22,5.60
2013,10,18,22,23,5.60
2013,10,18,22,24,5.60
2013,10,18,22,25,5.60
2013,10,18,22,26,5.60
2013,10,18,22,27,5.60
2013,10,18,22,28,5.60
2013,10,18,22,29,5.60
2013,10,18,22,30,5.60
2013,10,18,22,31,5.50
2013,10,18,22,32,5.50
2013,10,18,22,33,5.50
2013,10,18,22,34,5.40
2013,10,18,22,35,5.40
2013,10,18,22,36,5.40
2013,10,18,22,37,5.40
2013,10,18,22,38,5.30
2013,10,18,22,39,5.30
2013,10,18,22,40,5.30
2013,10,18,22,41,5.30
2013,10,18,22,42,5.30
2013,10,18,22,43,5.30
2013,10,18,22,44,5.30
2013,10,18,22,45,5.30
2013,10,18,22,46,5.30
2013,10,18,22,47,5.30
2013,10,18,22,48,5.30
2013,10,18,22,49,5.20
2013,10,18,22,50,5.20
2013,10,18,22,51,5.20
2013,10,18,22,52,5.20
2013,10,18,22,53,5.20
2013,10,18,22,54,5.20
2013,10,18,22,55,5.20
2013,10,18,22,56,5.20
2013,10,18,22,57,5.20
2013,10,18,22,58,5.20
2013,10,18,22,59,5.20
2013,10,18,23,00,5.20
2013,10,18,23,01,5.20
2013,10,18,23,02,5.20
2013,10,18,23,03,5.20
2013,10,18,23,04,5.20
2013,10,18,23,05,5.10
2013,10,18,23,06,5.10
2013,10,18,23,07,5.10
2013,10,18,23,08,5.10
2013,10,18,23,09,5.10
2013,10,18,23,10,5.10
2013,10,18,23,11,5.10
2013,10,18,23,12,5.10
2013,10,18,23,13,5.10
2013,10,18,23,14,5.10
2013,10,18,23,15,5.10
2013,10,18,23,16,5.10
2013,10,18,23,17,5.10
2013,10,18,23,18,5.10
2013,10,18,23,19,5.00
2013,10,18,23,20,5.00
2013,10,18,23,21,5.00
2013,10,18,23,22,5.00
2013,10,18,23,23,5.00
2013,10,18,23,24,4.90
2013,10,18,23,25,4.90
2013,10,18,23,26,4.90
2013,10,18,23,27,4.90
2013,10,18,23,28,4.90
2013,10,18,23,29,4.90
2013,10,18,23,30,4.90
2013,10,18,23,31,4.90
2013,10,18,23,32,4.90
2013,10,18,23,33,4.80
2013,10,18,23,34,4.80
2013,10,18,23,35,4.80
2013,10,18,23,36,4.80
2013,10,18,23,37,4.80
2013,10,18,23,38,4.80
2013,10,18,23,39,4.80
2013,10,18,23,40,4.80
2013,10,18,23,41,4.80
2013,10,18,23,42,4.80
2013,10,18,23,43,4.80
2013,10,18,23,44,4.80
2013,10,18,23,45,4.80
2013,10,18,23,46,4.80
2013,10,18,23,47,4.70
2013,10,18,23,48,4.70
2013,10,18,23,49,4.70
2013,10,18,23,50,4.70
2013,10,18,23,51,4.70
2013,10,18,23,52,4.70
2013,10,18,23,53,4.70
2013,10,18,23,54,4.70
2013,10,18,23,55,4.70
2013,10,18,23,56,4.70
2013,10,18,23,57,4.70
2013,10,18,23,58,4.70
2013,10,18,23,59,4.70
